Regional Weather Roundup
Issued by NWS

Home | Current Version | Previous Version | Text Only | Print | Product List | Glossary Off
Versions: 1 2 3 4 5 6 7 8 9 10 11 12 13 14 15 16 17 18 19 20 21 22 23 24 25 26 27 28 29 30 31 32 33 34 35 36 37 38 39 40 41 42 43 44 45 46 47 48 49 50

000
ASUS45 KSLC 180210
RWRUT

UTAH REGIONAL WEATHER ROUNDUP
NATIONAL WEATHER SERVICE SALT LAKE CITY UT
700 PM MST WED DEC 17 2014

UTZ001>011-023>025-180300-

NORTHERN UTAH

CITY           SKY/WX    TMP DP  RH WIND       PRES   REMARKS
BRIGHAM CITY   PTCLDY    33  28  83 CALM      30.02R
HILL AFB       PTCLDY    32  29  90 W5        30.01R WCI  27
LOGAN          CLEAR     31  27  85 SE3       30.00R
OGDEN          PTCLDY    33  29  85 SW3       30.01R
PROVO AIRPORT  PTCLDY    36  28  75 CALM      30.01R
SALT LAKE CITY MOCLDY    33  29  85 W6        30.01R WCI  28
VERNAL         CLOUDY    26  23  88 CALM      30.05R
WENDOVER       CLOUDY    34  27  75 CALM      30.03R
HEBER CITY     PTCLDY    32  25  74 CALM      29.99R
WEST JORDAN    MOCLDY    34  32  93 CALM      30.02R

$$

UTZ012>022-026-027-180300-

SOUTHERN/CENTRAL UTAH

CITY           SKY/WX    TMP DP  RH WIND       PRES   REMARKS
BLANDING       CLOUDY    33  33 100 S3        30.09R
BRYCE CANYON   MOCLDY    23  20  88 N6        30.02R WCI  16
CEDAR CITY     CLOUDY    35  31  85 S5        30.02R WCI  31
DELTA          CLOUDY    37  32  84 S6        30.02S WCI  32
MILFORD        CLOUDY    38  32  79 S10       30.02R WCI  31
MOAB/CYNLANDS  LGT RAIN  36  34  92 CALM      30.01R
PRICE          CLOUDY    29  21  72 N5        29.99R WCI  24
ST GEORGE      CLOUDY    46  34  61 CALM      30.08R
KANAB            N/A     32  32 100 CALM      30.09R

$$

REGIONAL REPORTS     COLORADO/ARIZONA

CITY           SKY/WX    TMP DP  RH WIND       PRES   REMARKS
CRAIG, CO      CLOUDY    28  26  92 W3        30.01R
GRAND JUNCTION CLOUDY    35  35 100 NW3       30.00R FOG
RIFLE          CLOUDY    34  32  92 CALM      29.99R
MONTROSE       CLOUDY    35  33  92 MISG      30.01R
CORTEZ         CLOUDY    34  32  92 W9        30.03R WCI  27
PAGE, AZ       PTCLDY    39  34  82 CALM      30.04R
GRAND CANYON   LGT SNOW  32  31  96 SW7       30.06R FOG     WCI  26
KINGMAN        CLOUDY    43  40  89 S6        30.07R
FLAGSTAFF      LGT SNOW  31  29  92 SW6       30.06R FOG     WCI  25

$$

REGIONAL REPORTS    NEVADA/IDAHO/WYOMING

CITY           SKY/WX    TMP DP  RH WIND       PRES   REMARKS
LAS VEGAS, NV  MOCLDY    51  43  74 SE3       30.01R
ELY            CLOUDY    33  22  63 S3        30.01R
ELKO           CLOUDY    27  26  96 CALM      30.02R FOG
POCATELLO, ID  CLEAR     29  29 100 CALM      30.02R
BURLEY         CLOUDY    34  27  75 E7        30.00R WCI  28
EVANSTON, WY   MOCLDY    29  17  61 NW6       29.98R WCI  23
ROCK SPRINGS   PTCLDY    23  16  74 S3        29.98R
KEMMERER       PTCLDY    28  19  69 W3        29.98R

$$


USA.gov is the U.S. government's official web portal to all federal, state and local government web resources and services.